Location: Tafessasset
(32.5899°N, 5.4824°W)
Time: 10:07:34
(UTC+00:00)

Cosmos 2016 Rocket - Pass Details

Date: 18 February 2020
Orbit: 948 x 999 km, 83.0° (Epoch: 28 March)

Event Time Altitude Azimuth Distance (km) Brightness Sun altitude
Rises 06:25:25 0° 351° (N) 3,670 6.8 -8.5°
Reaches altitude 10° 06:27:55 10° 350° (N) 2,727 6.2 -8.0°
Maximum altitude 06:34:09 74° 266° (W) 1,023 4.0 -6.7°
Drops below altitude 10° 06:40:26 10° 183° (S) 2,745 6.5 -5.4°
Sets 06:42:57 0° 181° (S) 3,695 7.2 -4.9°
